{"data":{"norad_id":49451,"intl_designator":"2021-104AV","name":"STARLINK-3125","alt_names":[],"object_type":"PAYLOAD","status":"ACTIVE","operator":null,"country":"US","launch_date":"2021-11-13","launch_site_code":"AFETR","launch_vehicle":null,"mission":null,"orbit_class":"UNKNOWN","rcs_meters":null,"size_class":null,"mass_kg":null,"dimensions":null,"purposes":["comms"],"wikipedia_slug":null,"has_3d_model":false,"image_url":null,"decayed_at":null,"tle_current":{"epoch":"2026-05-24T23:43:08.007168Z","epoch_age_seconds":86176,"freshness":"FRESH","line1":"1 49451U 21104AV  26144.98828712  .00000143  00000+0  27080-4 0  9991","line2":"2 49451  53.2161 236.6017 0000940  79.7348 280.3751 15.08836534250296","mean_motion":15.08836534,"eccentricity":9.4e-5,"inclination_deg":53.2161,"raan_deg":236.6017,"arg_perigee_deg":79.7348,"mean_anomaly_deg":280.3751,"bstar":2.708e-5,"rev_number":25029,"period_min":95.437773910636,"perigee_km":539.10370140737,"apogee_km":540.40426491221,"semimajor_km":6917.8909831598,"source":"CELESTRAK","updated_at":"2026-05-25T13:38:16.803985Z"}}}